Time,TemperatureF,DewpointF,PressureIn,WindDirection,WindDirectionDegrees,WindSpeedMPH,WindSpeedGustMPH,Humidity,HourlyPrecipIn,Conditions,Clouds,dailyrainin,SoftwareType,DateUTC
2013-06-21 00:02:00,50.5,48.6,30.01,NNW,345,3.0,9.0,93,0.00,,,0.00,meteohub,2013-06-21 07:02:00,
2013-06-21 00:07:00,50.5,48.6,30.01,NW,320,0.0,9.0,93,0.00,,,0.00,meteohub,2013-06-21 07:07:00,
2013-06-21 00:12:00,50.5,48.6,30.01,SE,143,0.0,9.0,93,0.00,,,0.00,meteohub,2013-06-21 07:12:00,
2013-06-21 00:17:00,50.5,48.6,30.01,NW,309,0.0,6.0,93,0.00,,,0.00,meteohub,2013-06-21 07:17:00,
2013-06-21 00:22:00,50.5,48.6,30.01,WNW,286,3.0,6.0,93,0.00,,,0.00,meteohub,2013-06-21 07:22:00,
2013-06-21 00:27:00,50.5,48.6,30.01,NW,309,1.0,6.0,93,0.00,,,0.00,meteohub,2013-06-21 07:27:00,
2013-06-21 00:32:00,50.5,48.6,30.00,WNW,300,3.0,6.0,93,0.00,,,0.00,meteohub,2013-06-21 07:32:00,
2013-06-21 00:37:00,50.5,48.6,30.00,NNW,335,3.0,7.0,93,0.00,,,0.00,meteohub,2013-06-21 07:37:00,
2013-06-21 00:42:00,50.7,48.7,30.00,NNW,327,3.0,7.0,93,0.00,,,0.00,meteohub,2013-06-21 07:42:00,
2013-06-21 00:47:00,50.7,49.1,30.00,NW,326,0.0,6.0,94,0.00,,,0.00,meteohub,2013-06-21 07:47:00,
2013-06-21 00:52:00,50.5,48.9,30.00,WNW,296,3.0,6.0,94,0.00,,,0.00,meteohub,2013-06-21 07:52:00,
2013-06-21 00:57:00,50.5,48.9,30.00,West,278,3.0,6.0,94,0.00,,,0.00,meteohub,2013-06-21 07:57:00,
2013-06-21 01:02:00,50.5,48.9,30.00,West,275,4.0,6.0,94,0.00,,,0.00,meteohub,2013-06-21 08:02:00,
2013-06-21 01:07:00,50.5,48.9,30.00,West,281,1.0,6.0,94,0.00,,,0.00,meteohub,2013-06-21 08:07:00,
2013-06-21 01:12:00,50.5,48.9,30.00,NW,316,0.0,6.0,94,0.00,,,0.00,meteohub,2013-06-21 08:12:00,
2013-06-21 01:17:00,50.5,48.9,30.00,WSW,257,0.0,5.0,94,0.00,,,0.00,meteohub,2013-06-21 08:17:00,
2013-06-21 01:22:00,50.5,49.1,30.00,WNW,298,0.0,5.0,95,0.00,,,0.00,meteohub,2013-06-21 08:22:00,
2013-06-21 01:27:00,50.5,49.1,29.99,SW,215,1.0,6.0,95,0.00,,,0.00,meteohub,2013-06-21 08:27:00,
2013-06-21 01:32:00,50.5,49.1,29.99,West,278,3.0,6.0,95,0.00,,,0.00,meteohub,2013-06-21 08:32:00,
2013-06-21 01:37:00,50.5,49.1,29.99,WNW,283,4.0,6.0,95,0.00,,,0.00,meteohub,2013-06-21 08:37:00,
2013-06-21 01:42:00,50.5,49.1,29.99,WNW,298,2.0,7.0,95,0.00,,,0.00,meteohub,2013-06-21 08:42:00,
2013-06-21 01:47:00,50.5,49.1,29.99,NW,308,1.0,7.0,95,0.00,,,0.00,meteohub,2013-06-21 08:47:00,
2013-06-21 01:52:00,50.5,49.1,29.99,NW,323,5.0,7.0,95,0.00,,,0.00,meteohub,2013-06-21 08:52:00,
2013-06-21 01:57:00,50.5,49.1,29.99,South,182,3.0,6.0,95,0.00,,,0.00,meteohub,2013-06-21 08:57:00,
2013-06-21 02:02:00,50.5,49.1,29.99,NW,317,2.0,6.0,95,0.00,,,0.00,meteohub,2013-06-21 09:02:00,
2013-06-21 02:07:00,50.5,49.1,29.99,SSW,211,0.0,7.0,95,0.00,,,0.00,meteohub,2013-06-21 09:07:00,
2013-06-21 02:12:00,50.5,49.1,29.99,North,355,1.0,7.0,95,0.00,,,0.00,meteohub,2013-06-21 09:12:00,
2013-06-21 02:17:00,50.5,49.1,29.99,SE,130,2.0,7.0,95,0.00,,,0.00,meteohub,2013-06-21 09:17:00,
2013-06-21 02:22:00,50.5,49.1,29.98,ENE,61,0.0,5.0,95,0.00,,,0.00,meteohub,2013-06-21 09:22:00,
2013-06-21 02:27:00,50.5,49.1,29.99,South,169,0.0,4.0,95,0.00,,,0.00,meteohub,2013-06-21 09:27:00,
2013-06-21 02:32:00,50.5,49.5,29.99,SSE,163,0.0,4.0,96,0.00,,,0.00,meteohub,2013-06-21 09:32:00,
2013-06-21 02:37:00,50.5,49.5,29.98,SSE,163,0.0,4.0,96,0.00,,,0.00,meteohub,2013-06-21 09:37:00,
2013-06-21 02:42:00,50.5,49.5,29.99,SSE,167,3.0,4.0,96,0.00,,,0.00,meteohub,2013-06-21 09:42:00,
2013-06-21 02:47:00,50.5,49.5,29.98,SE,139,1.0,5.0,96,0.00,,,0.00,meteohub,2013-06-21 09:47:00,
2013-06-21 02:52:00,50.5,49.5,29.98,SE,131,1.0,5.0,96,0.00,,,0.00,meteohub,2013-06-21 09:52:00,
2013-06-21 02:57:00,50.5,49.5,29.98,SE,141,0.0,5.0,96,0.00,,,0.00,meteohub,2013-06-21 09:57:00,
2013-06-21 03:02:00,50.7,49.6,29.98,SE,141,0.0,4.0,96,0.00,,,0.00,meteohub,2013-06-21 10:02:00,
2013-06-21 03:07:00,50.7,49.6,29.98,SSE,159,4.0,4.0,96,0.00,,,0.00,meteohub,2013-06-21 10:07:00,
2013-06-21 03:12:00,50.7,49.6,29.98,SSE,161,2.0,4.0,96,0.00,,,0.00,meteohub,2013-06-21 10:12:00,
2013-06-21 03:17:00,50.7,49.6,29.98,SE,143,1.0,6.0,96,0.00,,,0.00,meteohub,2013-06-21 10:17:00,
2013-06-21 03:22:00,50.7,49.6,29.98,SE,133,5.0,6.0,96,0.00,,,0.00,meteohub,2013-06-21 10:22:00,
2013-06-21 03:27:00,50.7,49.6,29.98,South,184,5.0,6.0,96,0.00,,,0.00,meteohub,2013-06-21 10:27:00,
2013-06-21 03:32:00,50.7,49.6,29.98,SSE,163,5.0,10.0,96,0.00,,,0.00,meteohub,2013-06-21 10:32:00,
2013-06-21 03:37:00,50.7,49.6,29.98,South,188,3.0,10.0,96,0.00,,,0.00,meteohub,2013-06-21 10:37:00,
2013-06-21 03:42:00,50.7,49.6,29.98,SSE,153,2.0,8.0,96,0.00,,,0.00,meteohub,2013-06-21 10:42:00,
2013-06-21 03:47:00,50.7,49.6,29.98,SSE,153,1.0,8.0,96,0.00,,,0.00,meteohub,2013-06-21 10:47:00,
2013-06-21 03:52:00,50.5,49.5,29.98,SE,145,3.0,8.0,96,0.00,,,0.00,meteohub,2013-06-21 10:52:00,
2013-06-21 03:57:00,50.5,49.5,29.97,South,182,3.0,8.0,96,0.00,,,0.00,meteohub,2013-06-21 10:57:00,
2013-06-21 04:02:00,50.5,49.5,29.97,SSE,160,6.0,8.0,96,0.00,,,0.00,meteohub,2013-06-21 11:02:00,
2013-06-21 04:07:00,50.5,49.5,29.97,South,182,3.0,8.0,96,0.00,,,0.00,meteohub,2013-06-21 11:07:00,
2013-06-21 04:12:00,50.4,49.3,29.97,South,180,4.0,8.0,96,0.00,,,0.00,meteohub,2013-06-21 11:12:00,
2013-06-21 04:17:00,50.4,49.3,29.97,SE,134,3.0,8.0,96,0.00,,,0.00,meteohub,2013-06-21 11:17:00,
2013-06-21 04:22:00,50.4,49.3,29.97,ESE,117,1.0,5.0,96,0.00,,,0.00,meteohub,2013-06-21 11:22:00,
2013-06-21 04:27:00,50.4,49.3,29.98,South,170,5.0,7.0,96,0.00,,,0.00,meteohub,2013-06-21 11:27:00,
2013-06-21 04:32:00,50.4,49.3,29.97,South,188,2.0,7.0,96,0.00,,,0.00,meteohub,2013-06-21 11:32:00,
2013-06-21 04:37:00,50.4,49.3,29.98,SE,132,6.0,7.0,96,0.00,,,0.00,meteohub,2013-06-21 11:37:00,
2013-06-21 04:42:00,50.4,49.3,29.97,SE,130,0.0,7.0,96,0.00,,,0.00,meteohub,2013-06-21 11:42:00,
2013-06-21 04:47:00,50.4,49.5,29.97,SSE,147,2.0,7.0,97,0.00,,,0.00,meteohub,2013-06-21 11:47:00,
2013-06-21 04:52:00,50.4,49.5,29.97,SSE,148,1.0,7.0,97,0.00,,,0.00,meteohub,2013-06-21 11:52:00,
2013-06-21 05:02:00,50.2,49.3,29.97,South,180,0.0,3.0,97,0.00,,,0.00,meteohub,2013-06-21 12:02:00,
2013-06-21 05:07:00,50.2,49.3,29.97,SSE,158,0.0,3.0,97,0.00,,,0.00,meteohub,2013-06-21 12:07:00,
2013-06-21 05:12:00,50.2,49.3,29.98,SE,145,0.0,4.0,97,0.00,,,0.00,meteohub,2013-06-21 12:12:00,
2013-06-21 05:17:00,50.0,49.1,29.97,SSE,162,1.0,4.0,97,0.00,,,0.00,meteohub,2013-06-21 12:17:00,
2013-06-21 05:22:00,50.0,49.1,29.98,SE,143,2.0,2.0,97,0.00,,,0.00,meteohub,2013-06-21 12:22:00,
2013-06-21 05:27:00,49.8,48.9,29.98,SE,143,1.0,3.0,97,0.00,,,0.00,meteohub,2013-06-21 12:27:00,
2013-06-21 05:32:00,49.8,48.9,29.98,ESE,118,0.0,3.0,97,0.00,,,0.00,meteohub,2013-06-21 12:32:00,
2013-06-21 05:37:00,49.8,48.9,29.98,ESE,118,1.0,4.0,97,0.00,,,0.00,meteohub,2013-06-21 12:37:00,
2013-06-21 05:42:00,49.6,48.7,29.98,SSE,167,1.0,4.0,97,0.00,,,0.00,meteohub,2013-06-21 12:42:00,
2013-06-21 05:47:00,49.6,48.7,29.98,ESE,123,2.0,3.0,97,0.00,,,0.00,meteohub,2013-06-21 12:47:00,
2013-06-21 05:52:00,49.6,48.7,29.98,SE,124,0.0,4.0,97,0.00,,,0.00,meteohub,2013-06-21 12:52:00,
2013-06-21 05:57:00,49.8,48.9,29.98,SE,124,0.0,4.0,97,0.00,,,0.00,meteohub,2013-06-21 12:57:00,
2013-06-21 06:02:00,49.8,48.9,29.99,SE,124,0.0,4.0,97,0.00,,,0.00,meteohub,2013-06-21 13:02:00,
2013-06-21 06:07:00,49.6,48.7,29.99,South,190,1.0,3.0,97,0.00,,,0.00,meteohub,2013-06-21 13:07:00,
2013-06-21 06:17:00,49.6,48.7,29.99,SE,140,1.0,6.0,97,0.00,,,0.00,meteohub,2013-06-21 13:17:00,
2013-06-21 06:22:00,49.6,48.7,29.99,SE,140,0.0,6.0,97,0.00,,,0.00,meteohub,2013-06-21 13:22:00,
2013-06-21 06:27:00,49.8,48.9,29.99,SE,140,0.0,4.0,97,0.00,,,0.00,meteohub,2013-06-21 13:27:00,
2013-06-21 06:32:00,50.2,49.3,29.99,SE,146,1.0,4.0,97,0.00,,,0.00,meteohub,2013-06-21 13:32:00,
2013-06-21 06:37:00,50.4,49.5,29.99,South,170,6.0,6.0,97,0.00,,,0.00,meteohub,2013-06-21 13:37:00,
2013-06-21 06:47:00,50.7,49.8,29.99,SSE,165,2.0,7.0,97,0.00,,,0.00,meteohub,2013-06-21 13:47:00,
2013-06-21 06:52:00,51.1,50.2,29.99,SE,135,0.0,7.0,97,0.00,,,0.00,meteohub,2013-06-21 13:52:00,
2013-06-21 06:57:00,51.3,50.4,29.99,SSE,159,2.0,7.0,97,0.00,,,0.00,meteohub,2013-06-21 13:57:00,
2013-06-21 07:02:00,51.4,50.5,30.00,SE,127,0.0,6.0,97,0.00,,,0.00,meteohub,2013-06-21 14:02:00,
2013-06-21 07:07:00,51.6,50.7,30.00,SSE,157,2.0,6.0,97,0.00,,,0.00,meteohub,2013-06-21 14:07:00,
2013-06-21 07:12:00,52.0,50.9,30.00,SSE,150,0.0,6.0,96,0.00,,,0.00,meteohub,2013-06-21 14:12:00,
2013-06-21 07:22:00,52.2,51.1,30.00,SE,136,1.0,8.0,96,0.00,,,0.00,meteohub,2013-06-21 14:22:00,
2013-06-21 07:27:00,52.5,51.1,30.00,SE,142,4.0,8.0,95,0.00,,,0.00,meteohub,2013-06-21 14:27:00,
2013-06-21 07:32:00,52.9,51.4,30.00,South,173,0.0,10.0,95,0.00,,,0.00,meteohub,2013-06-21 14:32:00,
2013-06-21 07:37:00,53.2,51.8,30.00,SSE,159,2.0,10.0,95,0.00,,,0.00,meteohub,2013-06-21 14:37:00,
2013-06-21 07:42:00,54.0,52.3,30.00,SSE,164,1.0,8.0,94,0.00,,,0.00,meteohub,2013-06-21 14:42:00,
2013-06-21 07:47:00,54.5,52.5,30.00,South,187,1.0,7.0,93,0.00,,,0.00,meteohub,2013-06-21 14:47:00,
2013-06-21 07:52:00,54.9,52.5,30.00,SW,216,1.0,4.0,92,0.00,,,0.00,meteohub,2013-06-21 14:52:00,
2013-06-21 07:57:00,54.9,52.0,30.00,South,172,4.0,5.0,90,0.00,,,0.00,meteohub,2013-06-21 14:57:00,
2013-06-21 08:02:00,54.9,52.0,30.00,SSW,192,3.0,6.0,90,0.00,,,0.00,meteohub,2013-06-21 15:02:00,
2013-06-21 08:11:00,55.6,52.3,30.00,SSE,148,2.0,6.0,89,0.00,,,0.00,meteohub,2013-06-21 15:11:00,
2013-06-21 08:17:00,55.9,51.8,30.01,SSE,155,2.0,6.0,86,0.00,,,0.00,meteohub,2013-06-21 15:17:00,
2013-06-21 08:22:00,56.3,51.4,30.01,SE,137,4.0,6.0,84,0.00,,,0.00,meteohub,2013-06-21 15:22:00,
2013-06-21 08:27:00,56.5,51.4,30.01,SW,219,4.0,8.0,83,0.00,,,0.00,meteohub,2013-06-21 15:27:00,
2013-06-21 08:32:00,56.5,51.4,30.01,South,186,3.0,8.0,83,0.00,,,0.00,meteohub,2013-06-21 15:32:00,
2013-06-21 08:37:00,57.0,51.6,30.01,South,177,2.0,8.0,82,0.00,,,0.00,meteohub,2013-06-21 15:37:00,
2013-06-21 08:42:00,57.0,51.6,30.02,WSW,241,4.0,8.0,82,0.00,,,0.00,meteohub,2013-06-21 15:42:00,
2013-06-21 08:47:00,57.0,51.6,30.02,SSE,162,5.0,8.0,82,0.00,,,0.00,meteohub,2013-06-21 15:47:00,
2013-06-21 08:52:00,56.7,51.6,30.01,SSW,205,6.0,8.0,83,0.00,,,0.00,meteohub,2013-06-21 15:52:00,
2013-06-21 08:57:00,57.6,52.5,30.01,South,171,0.0,8.0,83,0.00,,,0.00,meteohub,2013-06-21 15:57:00,
2013-06-21 09:02:00,58.8,52.7,30.01,ESE,104,0.0,7.0,80,0.00,,,0.00,meteohub,2013-06-21 16:02:00,
2013-06-21 09:07:00,59.5,52.7,30.01,ESE,115,0.0,6.0,78,0.00,,,0.00,meteohub,2013-06-21 16:07:00,
2013-06-21 09:17:00,60.3,52.3,30.01,SSW,194,3.0,3.0,75,0.00,,,0.00,meteohub,2013-06-21 16:17:00,
2013-06-21 09:22:00,59.9,52.0,30.01,South,186,4.0,5.0,75,0.00,,,0.00,meteohub,2013-06-21 16:22:00,
2013-06-21 09:27:00,59.5,52.3,30.01,SSW,198,4.0,7.0,77,0.00,,,0.00,meteohub,2013-06-21 16:27:00,
2013-06-21 09:32:00,60.4,52.9,30.01,South,178,2.0,7.0,76,0.00,,,0.00,meteohub,2013-06-21 16:32:00,
2013-06-21 09:37:00,61.0,52.7,30.01,South,172,3.0,7.0,74,0.00,,,0.00,meteohub,2013-06-21 16:37:00,
2013-06-21 09:42:00,61.2,52.9,30.01,South,169,5.0,7.0,74,0.00,,,0.00,meteohub,2013-06-21 16:42:00,
2013-06-21 09:52:00,61.7,52.5,30.01,SSW,198,4.0,6.0,72,0.00,,,0.00,meteohub,2013-06-21 16:52:00,
2013-06-21 09:57:00,61.5,52.0,30.01,SSW,198,5.0,7.0,71,0.00,,,0.00,meteohub,2013-06-21 16:57:00,
2013-06-21 10:02:00,61.5,52.0,30.01,SSW,213,3.0,7.0,71,0.00,,,0.00,meteohub,2013-06-21 17:02:00,
2013-06-21 10:07:00,61.3,51.4,30.01,SSW,196,4.0,7.0,70,0.00,,,0.00,meteohub,2013-06-21 17:07:00,
2013-06-21 10:17:00,62.1,52.5,30.01,SSW,198,4.0,7.0,71,0.00,,,0.00,meteohub,2013-06-21 17:17:00,
2013-06-21 10:22:00,62.4,52.5,30.02,South,169,5.0,7.0,70,0.00,,,0.00,meteohub,2013-06-21 17:22:00,
2013-06-21 10:27:00,62.4,52.2,30.02,South,176,6.0,8.0,69,0.00,,,0.00,meteohub,2013-06-21 17:27:00,
2013-06-21 10:32:00,62.1,52.2,30.02,South,183,6.0,9.0,70,0.00,,,0.00,meteohub,2013-06-21 17:32:00,
2013-06-21 10:37:00,62.1,52.5,30.01,SW,215,6.0,9.0,71,0.00,,,0.00,meteohub,2013-06-21 17:37:00,
2013-06-21 10:47:00,61.9,52.0,30.02,South,182,6.0,9.0,70,0.00,,,0.00,meteohub,2013-06-21 17:47:00,
2013-06-21 10:52:00,61.5,51.6,30.02,West,279,4.0,10.0,70,0.00,,,0.00,meteohub,2013-06-21 17:52:00,
2013-06-21 10:57:00,61.9,52.3,30.02,South,175,5.0,10.0,71,0.00,,,0.00,meteohub,2013-06-21 17:57:00,
2013-06-21 11:02:00,61.7,52.2,30.02,South,171,3.0,10.0,71,0.00,,,0.00,meteohub,2013-06-21 18:02:00,
2013-06-21 11:08:00,61.5,52.0,30.02,SSW,202,5.0,9.0,71,0.00,,,0.00,meteohub,2013-06-21 18:08:00,
2013-06-21 11:17:00,61.2,52.0,30.02,SSW,195,6.0,12.0,72,0.00,,,0.00,meteohub,2013-06-21 18:17:00,
2013-06-21 11:22:00,61.0,51.4,30.02,SSE,167,8.0,11.0,71,0.00,,,0.00,meteohub,2013-06-21 18:22:00,
2013-06-21 11:27:00,61.2,52.0,30.02,ESE,122,1.0,12.0,72,0.00,,,0.00,meteohub,2013-06-21 18:27:00,
2013-06-21 11:32:00,61.7,51.8,30.02,South,176,4.0,12.0,70,0.00,,,0.00,meteohub,2013-06-21 18:32:00,
2013-06-21 11:37:00,62.1,52.2,30.02,SW,219,1.0,12.0,70,0.00,,,0.00,meteohub,2013-06-21 18:37:00,
2013-06-21 11:42:00,61.3,52.2,30.03,WSW,241,4.0,11.0,72,0.00,,,0.00,meteohub,2013-06-21 18:42:00,
2013-06-21 11:47:00,60.8,51.3,30.03,WSW,248,2.0,12.0,71,0.00,,,0.00,meteohub,2013-06-21 18:47:00,
2013-06-21 11:52:00,60.4,51.8,30.03,SSE,156,1.0,12.0,73,0.00,,,0.00,meteohub,2013-06-21 18:52:00,
2013-06-21 11:57:00,60.4,51.8,30.03,WNW,302,1.0,12.0,73,0.00,,,0.00,meteohub,2013-06-21 18:57:00,
2013-06-21 12:02:00,60.1,51.4,30.03,SSW,210,1.0,11.0,73,0.00,,,0.00,meteohub,2013-06-21 19:02:00,
2013-06-21 12:12:00,60.3,52.3,30.03,NW,304,3.0,12.0,75,0.00,,,0.00,meteohub,2013-06-21 19:12:00,
2013-06-21 12:18:00,60.1,52.2,30.03,WNW,297,9.0,12.0,75,0.00,,,0.00,meteohub,2013-06-21 19:18:00,
2013-06-21 12:27:00,60.1,52.2,30.03,WNW,299,3.0,11.0,75,0.00,,,0.00,meteohub,2013-06-21 19:27:00,
2013-06-21 12:32:00,60.6,52.3,30.03,West,265,3.0,11.0,74,0.00,,,0.00,meteohub,2013-06-21 19:32:00,
2013-06-21 12:37:00,60.6,52.3,30.03,NW,319,4.0,9.0,74,0.00,,,0.00,meteohub,2013-06-21 19:37:00,
2013-06-21 12:42:00,60.6,52.3,30.03,WNW,297,2.0,11.0,74,0.00,,,0.00,meteohub,2013-06-21 19:42:00,
2013-06-21 12:52:00,60.6,52.7,30.03,NW,308,6.0,11.0,75,0.00,,,0.00,meteohub,2013-06-21 19:52:00,
2013-06-21 12:57:00,61.0,52.7,30.04,NW,307,6.0,10.0,74,0.00,,,0.00,meteohub,2013-06-21 19:57:00,
2013-06-21 13:02:00,60.4,52.5,30.04,WNW,299,2.0,11.0,75,0.00,,,0.00,meteohub,2013-06-21 20:02:00,
2013-06-21 13:07:00,60.4,52.5,30.04,NW,321,5.0,11.0,75,0.00,,,0.00,meteohub,2013-06-21 20:07:00,
2013-06-21 13:12:00,59.9,52.3,30.04,SSW,211,6.0,11.0,76,0.00,,,0.00,meteohub,2013-06-21 20:12:00,
2013-06-21 13:17:00,59.4,52.5,30.04,WSW,257,4.0,13.0,78,0.00,,,0.00,meteohub,2013-06-21 20:17:00,
2013-06-21 13:22:00,59.7,52.5,30.04,NW,319,7.0,13.0,77,0.00,,,0.00,meteohub,2013-06-21 20:22:00,
2013-06-21 13:27:00,59.7,52.9,30.04,NNW,329,2.0,13.0,78,0.00,,,0.00,meteohub,2013-06-21 20:27:00,
2013-06-21 13:32:00,60.1,52.9,30.03,NW,319,4.0,12.0,77,0.00,,,0.00,meteohub,2013-06-21 20:32:00,
2013-06-21 13:37:00,59.5,52.3,30.03,NNW,346,4.0,13.0,77,0.00,,,0.00,meteohub,2013-06-21 20:37:00,
2013-06-21 13:42:00,60.3,53.4,30.03,NW,321,3.0,13.0,78,0.00,,,0.00,meteohub,2013-06-21 20:42:00,
2013-06-21 13:47:00,60.4,52.5,30.03,WNW,296,6.0,13.0,75,0.00,,,0.00,meteohub,2013-06-21 20:47:00,
2013-06-21 13:52:00,59.7,52.5,30.03,NNW,327,3.0,14.0,77,0.00,,,0.00,meteohub,2013-06-21 20:52:00,
2013-06-21 13:57:00,60.1,52.5,30.03,West,268,2.0,14.0,76,0.00,,,0.00,meteohub,2013-06-21 20:57:00,
2013-06-21 14:02:00,59.7,52.2,30.02,NW,307,4.0,14.0,76,0.00,,,0.00,meteohub,2013-06-21 21:02:00,
2013-06-21 14:07:00,60.4,52.9,30.02,SSW,200,8.0,11.0,76,0.00,,,0.00,meteohub,2013-06-21 21:07:00,
2013-06-21 14:12:00,60.1,52.5,30.02,SW,219,1.0,13.0,76,0.00,,,0.00,meteohub,2013-06-21 21:12:00,
2013-06-21 14:17:00,60.1,52.5,30.02,NNW,342,8.0,13.0,76,0.00,,,0.00,meteohub,2013-06-21 21:17:00,
2013-06-21 14:27:00,59.5,52.7,30.02,South,189,6.0,14.0,78,0.00,,,0.00,meteohub,2013-06-21 21:27:00,
2013-06-21 14:32:00,60.1,52.9,30.02,NNW,329,2.0,14.0,77,0.00,,,0.00,meteohub,2013-06-21 21:32:00,
2013-06-21 14:37:00,60.1,52.5,30.02,NNW,328,7.0,13.0,76,0.00,,,0.00,meteohub,2013-06-21 21:37:00,
2013-06-21 14:42:00,59.7,52.9,30.02,WSW,244,2.0,12.0,78,0.00,,,0.00,meteohub,2013-06-21 21:42:00,
2013-06-21 14:47:00,60.3,53.1,30.02,WNW,301,5.0,11.0,77,0.00,,,0.00,meteohub,2013-06-21 21:47:00,
2013-06-21 14:57:00,59.5,52.7,30.01,West,261,3.0,13.0,78,0.00,,,0.00,meteohub,2013-06-21 21:57:00,
2013-06-21 15:02:00,59.4,52.9,30.01,WSW,254,7.0,15.0,79,0.00,,,0.00,meteohub,2013-06-21 22:02:00,
2013-06-21 15:07:00,59.7,52.9,30.02,WNW,283,6.0,16.0,78,0.00,,,0.00,meteohub,2013-06-21 22:07:00,
2013-06-21 15:17:00,59.5,53.1,30.01,NW,325,3.0,12.0,79,0.00,,,0.00,meteohub,2013-06-21 22:17:00,
2013-06-21 15:22:00,59.4,52.5,30.02,WNW,300,6.0,13.0,78,0.00,,,0.00,meteohub,2013-06-21 22:22:00,
2013-06-21 15:27:00,59.2,52.7,30.02,West,281,2.0,13.0,79,0.00,,,0.00,meteohub,2013-06-21 22:27:00,
2013-06-21 15:32:00,59.4,52.9,30.02,NNW,342,4.0,13.0,79,0.00,,,0.00,meteohub,2013-06-21 22:32:00,
2013-06-21 15:37:00,60.3,53.8,30.02,South,180,3.0,11.0,79,0.00,,,0.00,meteohub,2013-06-21 22:37:00,
2013-06-21 15:42:00,60.3,53.1,30.02,SSW,192,9.0,11.0,77,0.00,,,0.00,meteohub,2013-06-21 22:42:00,
2013-06-21 15:47:00,60.3,53.8,30.01,NNW,345,1.0,11.0,79,0.00,,,0.00,meteohub,2013-06-21 22:47:00,
2013-06-21 15:57:00,60.1,52.9,30.01,SSW,200,1.0,10.0,77,0.00,,,0.00,meteohub,2013-06-21 22:57:00,
2013-06-21 16:02:00,60.4,53.2,30.01,SW,219,4.0,10.0,77,0.00,,,0.00,meteohub,2013-06-21 23:02:00,
2013-06-21 16:07:00,60.3,53.1,30.01,NW,322,5.0,12.0,77,0.00,,,0.00,meteohub,2013-06-21 23:07:00,
2013-06-21 16:12:00,60.1,53.2,30.01,SW,218,7.0,12.0,78,0.00,,,0.00,meteohub,2013-06-21 23:12:00,
2013-06-21 16:17:00,59.7,52.9,30.01,SSW,201,1.0,12.0,78,0.00,,,0.00,meteohub,2013-06-21 23:17:00,
2013-06-21 16:22:00,59.7,53.2,30.01,ENE,70,1.0,12.0,79,0.00,,,0.00,meteohub,2013-06-21 23:22:00,
2013-06-21 16:27:00,59.2,52.7,30.01,WSW,251,9.0,12.0,79,0.00,,,0.00,meteohub,2013-06-21 23:27:00,
2013-06-21 16:32:00,58.8,52.7,30.00,West,269,10.0,12.0,80,0.00,,,0.00,meteohub,2013-06-21 23:32:00,
2013-06-21 16:37:00,58.6,52.2,30.00,West,265,6.0,12.0,79,0.00,,,0.00,meteohub,2013-06-21 23:37:00,
2013-06-21 16:42:00,58.6,52.5,30.00,West,263,3.0,14.0,80,0.00,,,0.00,meteohub,2013-06-21 23:42:00,
2013-06-21 16:47:00,58.5,52.3,30.00,West,265,6.0,14.0,80,0.00,,,0.00,meteohub,2013-06-21 23:47:00,
2013-06-21 16:52:00,58.3,52.2,29.99,NW,309,8.0,17.0,80,0.00,,,0.00,meteohub,2013-06-21 23:52:00,
2013-06-21 16:57:00,58.1,52.3,30.00,NW,325,10.0,17.0,81,0.00,,,0.00,meteohub,2013-06-21 23:57:00,
2013-06-21 17:02:00,58.5,52.7,30.00,NW,315,6.0,16.0,81,0.00,,,0.00,meteohub,2013-06-22 00:02:00,
2013-06-21 17:07:00,58.8,52.7,29.99,SW,234,2.0,16.0,80,0.00,,,0.00,meteohub,2013-06-22 00:07:00,
2013-06-21 17:12:00,58.8,52.7,29.99,SW,219,4.0,13.0,80,0.00,,,0.00,meteohub,2013-06-22 00:12:00,
2013-06-21 17:17:00,58.5,52.3,29.99,NW,306,8.0,13.0,80,0.00,,,0.00,meteohub,2013-06-22 00:17:00,
2013-06-21 17:22:00,58.5,52.7,29.99,SSE,163,7.0,14.0,81,0.00,,,0.00,meteohub,2013-06-22 00:22:00,
2013-06-21 17:27:00,58.5,52.3,29.99,SSE,152,2.0,14.0,80,0.00,,,0.00,meteohub,2013-06-22 00:27:00,
2013-06-21 17:32:00,58.3,52.2,29.99,North,5,5.0,14.0,80,0.00,,,0.00,meteohub,2013-06-22 00:32:00,
2013-06-21 17:37:00,58.1,52.3,29.98,SSW,211,4.0,12.0,81,0.00,,,0.00,meteohub,2013-06-22 00:37:00,
2013-06-21 17:42:00,58.3,52.2,29.98,NE,48,3.0,12.0,80,0.00,,,0.00,meteohub,2013-06-22 00:42:00,
2013-06-21 17:47:00,57.9,52.2,29.98,WSW,252,6.0,12.0,81,0.00,,,0.00,meteohub,2013-06-22 00:47:00,
2013-06-21 17:52:00,58.1,52.3,29.98,South,186,8.0,11.0,81,0.00,,,0.00,meteohub,2013-06-22 00:52:00,
2013-06-21 17:57:00,57.7,52.3,29.98,South,175,2.0,13.0,82,0.00,,,0.00,meteohub,2013-06-22 00:57:00,
2013-06-21 18:02:00,57.7,52.3,29.98,NW,313,1.0,14.0,82,0.00,,,0.00,meteohub,2013-06-22 01:02:00,
2013-06-21 18:07:00,57.9,52.2,29.98,WNW,302,10.0,14.0,81,0.00,,,0.00,meteohub,2013-06-22 01:07:00,
2013-06-21 18:12:00,58.1,52.3,29.98,NW,314,5.0,11.0,81,0.00,,,0.00,meteohub,2013-06-22 01:12:00,
2013-06-21 18:17:00,58.1,52.3,29.98,SW,230,3.0,11.0,81,0.00,,,0.00,meteohub,2013-06-22 01:17:00,
2013-06-21 18:22:00,57.7,52.3,29.98,NW,324,1.0,12.0,82,0.00,,,0.00,meteohub,2013-06-22 01:22:00,
2013-06-21 18:27:00,57.7,52.3,29.98,WSW,257,2.0,12.0,82,0.00,,,0.00,meteohub,2013-06-22 01:27:00,
2013-06-21 18:32:00,57.4,52.0,29.97,SSW,211,7.0,13.0,82,0.00,,,0.00,meteohub,2013-06-22 01:32:00,
2013-06-21 18:37:00,57.4,52.0,29.98,South,182,6.0,13.0,82,0.00,,,0.00,meteohub,2013-06-22 01:37:00,
2013-06-21 18:42:00,57.6,52.2,29.97,ESE,109,2.0,13.0,82,0.00,,,0.00,meteohub,2013-06-22 01:42:00,
2013-06-21 18:47:00,57.6,52.2,29.98,South,185,2.0,9.0,82,0.00,,,0.00,meteohub,2013-06-22 01:47:00,
2013-06-21 18:52:00,57.4,52.0,29.98,South,190,2.0,9.0,82,0.00,,,0.00,meteohub,2013-06-22 01:52:00,
2013-06-21 18:57:00,57.4,52.0,29.98,WNW,292,9.0,9.0,82,0.00,,,0.00,meteohub,2013-06-22 01:57:00,
2013-06-21 19:02:00,57.2,52.2,29.97,West,260,3.0,12.0,83,0.00,,,0.00,meteohub,2013-06-22 02:02:00,
2013-06-21 19:07:00,56.8,51.8,29.97,NW,323,5.0,12.0,83,0.00,,,0.00,meteohub,2013-06-22 02:07:00,
2013-06-21 19:12:00,56.7,51.6,29.97,South,185,2.0,12.0,83,0.00,,,0.00,meteohub,2013-06-22 02:12:00,
2013-06-21 19:17:00,56.5,51.4,29.97,SW,214,2.0,11.0,83,0.00,,,0.00,meteohub,2013-06-22 02:17:00,
2013-06-21 19:22:00,56.3,51.4,29.98,SSE,166,4.0,11.0,84,0.00,,,0.00,meteohub,2013-06-22 02:22:00,
2013-06-21 19:27:00,56.1,51.4,29.98,SW,230,1.0,9.0,84,0.00,,,0.00,meteohub,2013-06-22 02:27:00,
2013-06-21 19:32:00,55.9,51.3,29.98,SSW,209,2.0,9.0,84,0.00,,,0.00,meteohub,2013-06-22 02:32:00,
2013-06-21 19:37:00,55.6,51.1,29.98,SSW,212,6.0,9.0,85,0.00,,,0.00,meteohub,2013-06-22 02:37:00,
2013-06-21 19:42:00,55.0,50.9,29.98,SW,227,7.0,9.0,86,0.00,,,0.00,meteohub,2013-06-22 02:42:00,
2013-06-21 19:47:00,55.0,50.9,29.97,SSE,148,1.0,9.0,86,0.00,,,0.00,meteohub,2013-06-22 02:47:00,
2013-06-21 19:52:00,55.0,50.9,29.97,SW,224,4.0,8.0,86,0.00,,,0.00,meteohub,2013-06-22 02:52:00,
2013-06-21 19:57:00,54.9,51.1,29.97,SSE,164,5.0,8.0,87,0.00,,,0.00,meteohub,2013-06-22 02:57:00,
2013-06-21 20:02:00,54.5,50.7,29.97,SW,214,7.0,8.0,87,0.00,,,0.00,meteohub,2013-06-22 03:02:00,
2013-06-21 20:07:00,54.3,50.5,29.97,SSW,197,2.0,8.0,87,0.00,,,0.00,meteohub,2013-06-22 03:07:00,
2013-06-21 20:12:00,54.1,50.7,29.97,South,169,2.0,8.0,88,0.00,,,0.00,meteohub,2013-06-22 03:12:00,
2013-06-21 20:17:00,54.0,50.5,29.97,NE,54,2.0,7.0,88,0.00,,,0.00,meteohub,2013-06-22 03:17:00,
2013-06-21 20:22:00,53.8,50.4,29.97,South,188,3.0,7.0,88,0.00,,,0.00,meteohub,2013-06-22 03:22:00,
2013-06-21 20:27:00,53.8,50.5,29.97,SSW,197,0.0,10.0,89,0.00,,,0.00,meteohub,2013-06-22 03:27:00,
2013-06-21 20:32:00,53.6,50.4,29.96,SE,134,4.0,10.0,89,0.00,,,0.00,meteohub,2013-06-22 03:32:00,
2013-06-21 20:37:00,53.4,50.2,29.97,South,169,5.0,10.0,89,0.00,,,0.00,meteohub,2013-06-22 03:37:00,
2013-06-21 20:42:00,53.2,50.0,29.96,SSW,192,4.0,9.0,89,0.00,,,0.00,meteohub,2013-06-22 03:42:00,
2013-06-21 20:47:00,53.2,50.0,29.96,South,191,5.0,10.0,89,0.00,,,0.00,meteohub,2013-06-22 03:47:00,
2013-06-21 20:52:00,53.2,50.4,29.96,South,189,3.0,10.0,90,0.00,,,0.00,meteohub,2013-06-22 03:52:00,
2013-06-21 20:57:00,53.1,50.2,29.96,SSW,209,0.0,10.0,90,0.00,,,0.00,meteohub,2013-06-22 03:57:00,
2013-06-21 21:02:00,53.1,50.2,29.96,SSW,211,1.0,10.0,90,0.00,,,0.00,meteohub,2013-06-22 04:02:00,
2013-06-21 21:07:00,53.1,50.2,29.96,SW,215,3.0,10.0,90,0.00,,,0.00,meteohub,2013-06-22 04:07:00,
2013-06-21 21:12:00,52.9,50.0,29.96,SSW,208,5.0,10.0,90,0.00,,,0.00,meteohub,2013-06-22 04:12:00,
2013-06-21 21:17:00,52.9,50.0,29.96,South,186,5.0,10.0,90,0.00,,,0.00,meteohub,2013-06-22 04:17:00,
2013-06-21 21:22:00,52.7,49.8,29.96,SSE,165,7.0,10.0,90,0.00,,,0.00,meteohub,2013-06-22 04:22:00,
2013-06-21 21:27:00,52.5,49.6,29.97,SW,231,2.0,10.0,90,0.00,,,0.00,meteohub,2013-06-22 04:27:00,
2013-06-21 21:32:00,52.5,50.0,29.96,South,176,0.0,9.0,91,0.00,,,0.00,meteohub,2013-06-22 04:32:00,
2013-06-21 21:37:00,52.5,50.0,29.96,SSW,210,4.0,9.0,91,0.00,,,0.00,meteohub,2013-06-22 04:37:00,
2013-06-21 21:42:00,52.5,50.0,29.96,SSW,192,1.0,10.0,91,0.00,,,0.00,meteohub,2013-06-22 04:42:00,
2013-06-21 21:47:00,52.3,49.8,29.96,SSW,196,1.0,10.0,91,0.00,,,0.00,meteohub,2013-06-22 04:47:00,
2013-06-21 21:52:00,52.3,49.8,29.97,SSW,200,4.0,10.0,91,0.00,,,0.00,meteohub,2013-06-22 04:52:00,
2013-06-21 21:57:00,52.3,49.8,29.97,SSW,203,5.0,10.0,91,0.00,,,0.00,meteohub,2013-06-22 04:57:00,
2013-06-21 22:02:00,52.2,49.8,29.97,SSW,200,5.0,10.0,92,0.00,,,0.00,meteohub,2013-06-22 05:02:00,
2013-06-21 22:07:00,52.2,49.8,29.97,SSW,198,4.0,11.0,92,0.00,,,0.00,meteohub,2013-06-22 05:07:00,
2013-06-21 22:12:00,52.2,49.8,29.97,South,187,4.0,11.0,92,0.00,,,0.00,meteohub,2013-06-22 05:12:00,
2013-06-21 22:17:00,52.2,49.8,29.97,SW,216,7.0,9.0,92,0.00,,,0.00,meteohub,2013-06-22 05:17:00,
2013-06-21 22:22:00,52.2,49.8,29.97,SW,215,4.0,11.0,92,0.00,,,0.00,meteohub,2013-06-22 05:22:00,
2013-06-21 22:27:00,52.2,49.8,29.97,SE,126,2.0,11.0,92,0.00,,,0.00,meteohub,2013-06-22 05:27:00,
2013-06-21 22:32:00,52.0,49.6,29.97,SSW,197,5.0,11.0,92,0.00,,,0.00,meteohub,2013-06-22 05:32:00,
2013-06-21 22:37:00,52.0,49.6,29.97,SSW,210,5.0,8.0,92,0.00,,,0.00,meteohub,2013-06-22 05:37:00,
2013-06-21 22:42:00,52.0,50.0,29.97,South,178,9.0,13.0,93,0.00,,,0.00,meteohub,2013-06-22 05:42:00,
2013-06-21 22:47:00,52.0,50.0,29.97,SSE,167,6.0,13.0,93,0.00,,,0.00,meteohub,2013-06-22 05:47:00,
2013-06-21 22:52:00,51.8,49.8,29.96,SSE,155,5.0,11.0,93,0.00,,,0.00,meteohub,2013-06-22 05:52:00,
2013-06-21 22:57:00,51.8,49.8,29.97,SSW,192,4.0,12.0,93,0.00,,,0.00,meteohub,2013-06-22 05:57:00,
2013-06-21 23:02:00,51.6,49.6,29.96,SE,145,8.0,12.0,93,0.00,,,0.00,meteohub,2013-06-22 06:02:00,
2013-06-21 23:07:00,51.6,49.6,29.96,SE,128,8.0,12.0,93,0.00,,,0.00,meteohub,2013-06-22 06:07:00,
2013-06-21 23:12:00,51.6,49.6,29.96,SSE,148,4.0,13.0,93,0.00,,,0.00,meteohub,2013-06-22 06:12:00,
2013-06-21 23:17:00,51.6,49.6,29.96,South,175,3.0,13.0,93,0.00,,,0.00,meteohub,2013-06-22 06:17:00,
2013-06-21 23:22:00,51.6,49.6,29.96,South,178,6.0,11.0,93,0.00,,,0.00,meteohub,2013-06-22 06:22:00,
2013-06-21 23:27:00,51.6,49.6,29.96,SE,131,6.0,11.0,93,0.00,,,0.00,meteohub,2013-06-22 06:27:00,
2013-06-21 23:32:00,51.4,49.5,29.96,South,177,8.0,11.0,93,0.00,,,0.00,meteohub,2013-06-22 06:32:00,
2013-06-21 23:37:00,51.4,49.5,29.96,SSE,168,5.0,11.0,93,0.00,,,0.00,meteohub,2013-06-22 06:37:00,
2013-06-21 23:42:00,51.4,49.5,29.97,SE,142,2.0,13.0,93,0.00,,,0.00,meteohub,2013-06-22 06:42:00,
2013-06-21 23:47:00,51.4,49.5,29.96,SSE,167,9.0,13.0,93,0.00,,,0.00,meteohub,2013-06-22 06:47:00,
2013-06-21 23:52:00,51.4,49.5,29.96,SSW,194,6.0,13.0,93,0.00,,,0.00,meteohub,2013-06-22 06:52:00,
2013-06-21 23:57:00,51.4,49.8,29.97,SSE,148,8.0,10.0,94,0.00,,,0.00,meteohub,2013-06-22 06:57:00,